Cloud_Cover
32 68 68 68 68 56 20 12 12 8 12 12 12 8 0 0 0 0 0 20 36 48 48 44 44 44 32 8 0 8 24 36 36 24 8 0 0 0 0 0 0 0 0 0 0 0 0 0 0 0 8 8 36 64 64 32 8 0 0 0 0 0 0 0 12 24 44 64 56 48 56 24 12 12 8 8 8 0 0 0 0 0 0 0 0 8 12 0 0 0 0 0 0 0 0 0 0 8 12 8 8 8 8
48 92 92 92 92 76 12 12 8 0 0 0 0 12 44 32 12 0 0 20 24 32 36 36 32 32 48 12 0 12 64 80 76 56 12 0 0 0 0 12 20 20 0 0 0 0 0 0 0 0 0 8 36 64 64 24 8 0 12 0 0 0 0 0 12 20 24 68 68 48 24 12 12 20 24 12 8 8 12 8 0 0 0 0 0 8 20 8 8 8 0 0 0 0 0 0 0 0 0 0 0 0 8
48 92 92 92 68 36 8 20 20 8 0 0 0 12 56 80 56 32 24 8 0 8 12 36 44 56 80 56 44 44 48 56 56 44 8 0 0 0 0 32 48 44 0 8 8 0 0 0 8 8 8 12 36 64 48 20 8 0 12 0 0 0 0 12 8 12 36 48 56 48 8 12 24 24 20 12 12 12 24 12 0 0 0 0 0 0 8 8 12 12 8 0 0 0 0 0 0 0 0 0 0 0 0
24 56 80 56 48 32 8 36 24 8 8 0 0 0 8 20 24 20 12 8 12 20 20 36 44 48 64 64 48 36 36 32 24 20 0 0 0 0 0 0 36 68 36 20 8 0 8 12 12 12 8 8 20 36 48 24 8 0 12 12 0 0 0 24 20 20 44 36 44 36 8 20 24 24 20 24 24 20 12 12 8 8 8 0 0 8 8 8 20 32 20 0 0 0 0 0 0 0 0 0 0 0 0
8 0 8 0 8 8 8 8 36 48 20 0 0 0 8 12 12 24 56 44 44 36 8 8 8 12 24 12 8 8 8 0 0 0 0 0 0 8 20 12 44 76 56 24 8 0 0 20 20 20 12 8 8 20 48 24 12 8 12 8 0 0 0 0 12 20 0 48 56 44 32 20 24 32 12 20 12 12 24 32 20 8 24 8 0 0 0 20 20 12 12 8 0 0 0 0 0 0 0 0 0 0 0
8 8 8 12 20 32 36 8 12 32 32 8 0 0 0 20 36 64 92 92 68 44 20 8 0 0 0 24 36 32 0 24 20 8 8 20 20 32 64 44 44 48 44 24 12 0 0 20 20 20 20 8 0 0 8 20 20 8 0 0 0 0 0 0 0 8 0 0 24 44 24 20 20 32 44 20 12 20 24 32 24 12 8 0 0 0 20 20 12 8 8 0 0 0 0 0 0 0 0 0 0 0 0
68 36 8 8 12 44 80 44 32 24 12 0 0 0 0 0 0 20 76 92 92 88 64 88 48 8 0 12 20 24 48 12 0 0 0 32 32 32 48 68 56 48 48 36 20 8 0 20 24 24 24 8 0 0 0 0 0 0 0 0 0 0 0 0 0 0 0 0 20 36 12 12 12 20 20 8 8 12 8 8 0 0 0 0 0 0 8 12 8 0 0 0 0 0 0 0 0 0 0 0 0 0 0
92 76 12 44 48 36 8 36 44 24 8 0 0 0 0 0 0 0 0 48 80 80 32 44 64 80 88 64 56 56 76 68 36 12 12 24 24 24 24 24 36 44 44 24 8 8 12 20 36 56 48 20 0 0 0 0 0 0 0 0 0 0 0 0 0 0 8 32 24 8 0 12 24 24 24 20 8 8 8 0 8 12 0 0 0 0 0 8 0 0 0 0 0 0 0 0 0 0 0 0 0 0 0
0 20 88 76 80 88 64 36 24 20 0 8 8 8 8 0 0 0 0 12 32 32 0 20 32 48 88 80 80 68 36 64 68 56 24 36 32 12 20 12 12 8 0 0 0 0 12 20 32 36 24 12 0 0 0 0 0 0 0 0 0 0 0 0 0 0 0 20 32 36 32 24 32 36 32 32 24 12 0 8 12 8 0 0 0 0 0 0 0 0 0 0 0 0 0 0 0 0 0 0 0 0 0
0 0 20 68 76 56 24 68 80 64 0 8 24 44 36 12 0 0 0 0 20 24 8 12 32 56 88 48 68 92 80 64 48 44 32 48 32 12 0 8 0 0 0 0 0 8 12 12 24 24 12 8 0 0 8 0 0 0 0 0 0 0 0 0 0 0 0 24 44 48 48 32 36 48 64 56 36 20 8 8 12 12 0 0 0 0 0 0 0 0 0 0 0 0 0 0 0 0 0 0 0 0 0
0 0 0 0 12 32 36 8 0 0 0 36 68 80 64 12 0 0 0 0 8 12 20 20 24 36 32 36 56 88 92 44 20 12 12 32 36 32 0 0 0 0 0 0 20 32 24 12 12 12 8 0 0 0 12 32 20 0 0 0 0 0 0 0 0 0 0 24 36 44 48 36 24 24 48 32 32 36 32 20 8 8 12 8 0 0 0 0 0 0 0 0 0 0 0 0 0 0 0 0 0 0 0
0 0 0 0 0 0 0 0 0 0 0 36 76 76 0 0 0 0 0 0 0 0 0 0 0 8 0 0 0 20 80 68 36 8 8 12 20 20 0 0 0 8 24 20 24 44 56 20 12 20 12 8 8 12 24 44 24 8 0 0 0 0 0 0 0 0 0 24 32 32 20 36 36 32 24 12 24 36 48 32 20 12 8 8 0 0 0 0 0 0 0 0 0 0 0 0 0 0 0 0 0 0 0
0 0 0 0 0 0 0 0 0 0 0 0 36 64 8 8 8 8 0 0 0 0 0 8 20 20 8 0 0 0 8 64 48 24 20 8 0 0 12 0 0 0 8 12 12 32 68 64 48 44 48 24 20 20 20 32 36 32 0 0 0 0 0 0 0 0 0 20 24 24 20 32 36 36 24 12 12 20 48 44 36 20 8 8 8 0 0 0 0 0 0 0 0 0 0 0 0 0 0 0 0 0 0
0 0 0 0 0 0 0 0 0 0 0 0 8 12 8 8 0 0 0 0 12 12 0 24 36 36 32 8 0 0 0 20 32 44 36 20 8 0 8 8 0 0 0 8 12 12 36 48 48 56 88 64 36 20 12 8 24 36 12 8 0 0 0 0 0 0 0 0 0 8 24 32 36 36 24 20 12 20 36 32 32 32 20 12 8 8 8 0 0 0 0 0 0 0 0 0 0 0 0 8 0 0 0
0 0 0 0 0 0 0 0 0 0 0 0 0 0 0 0 0 0 0 0 0 0 0 12 8 0 0 0 0 0 0 0 8 12 0 8 8 8 12 20 12 8 0 12 12 12 24 24 24 48 88 88 76 56 56 24 24 24 32 20 8 0 0 0 0 0 0 0 0 8 12 32 32 32 24 20 12 12 12 20 24 32 24 20 12 8 8 8 8 0 0 0 0 0 0 0 0 0 20 20 12 0 0
0 0 0 0 0 0 0 0 0 0 0 0 0 0 0 0 0 0 0 0 0 0 0 0 0 0 0 0 0 0 0 0 0 0 0 0 0 8 12 20 12 0 0 12 32 48 56 68 76 76 88 88 88 88 88 76 36 8 20 12 8 8 0 0 0 0 0 12 12 12 24 20 12 12 24 20 12 8 8 8 12 24 24 20 20 12 12 8 8 8 0 0 0 0 0 0 0 8 32 20 8 0 0
0 0 0 0 0 0 0 0 0 0 0 0 0 0 0 0 0 0 0 0 0 0 0 0 0 0 0 0 0 0 0 0 0 0 0 0 0 0 8 8 8 0 0 0 32 68 76 76 80 80 88 88 88 88 88 88 48 12 8 0 0 0 0 0 0 0 0 20 24 32 32 24 24 36 36 24 24 20 8 8 8 12 24 20 20 12 8 8 8 8 0 0 0 0 0 0 0 8 20 12 8 0 0
0 0 0 0 0 0 0 0 0 0 0 0 0 0 0 0 0 0 0 0 0 0 0 0 0 0 0 0 0 0 0 0 0 0 0 0 0 0 0 12 20 12 0 0 20 44 56 56 56 56 64 80 88 80 56 64 44 20 8 0 0 0 0 0 0 0 0 20 32 44 44 32 44 56 32 32 32 32 8 12 8 8 12 20 20 12 8 8 8 8 0 0 0 0 0 0 0 0 8 12 12 12 0
32 24 20 0 0 0 0 0 0 0 0 0 0 0 0 0 0 0 8 0 0 0 0 0 0 0 0 0 0 0 0 0 0 0 8 0 0 0 0 8 20 24 8 0 0 8 20 20 12 20 24 48 48 36 20 24 20 8 8 0 0 0 0 0 0 0 8 36 36 36 48 48 44 44 24 24 24 24 12 24 20 8 8 12 12 12 8 8 8 0 0 0 0 0 0 0 0 0 8 12 12 12 0
80 76 68 56 36 20 12 8 0 0 0 0 0 0 0 20 12 8 0 0 0 0 0 0 0 0 0 0 0 0 0 0 24 56 56 32 8 0 0 0 8 20 20 32 24 12 0 0 0 0 0 8 8 0 8 8 8 8 8 0 0 0 0 0 0 0 0 24 32 32 44 32 24 32 36 24 20 20 32 36 32 20 20 12 12 12 8 8 0 0 0 0 0 0 0 0 0 0 8 8 0 0 0
92 92 76 64 36 12 12 32 44 44 56 20 8 12 44 36 20 0 0 0 0 0 0 0 0 0 0 0 0 0 0 0 24 56 92 68 36 8 0 8 8 0 8 56 64 48 32 8 0 0 0 0 0 0 0 0 0 0 0 0 0 0 0 0 0 0 0 8 24 36 32 24 20 20 36 20 20 20 24 36 32 32 32 24 24 20 0 0 0 0 0 0 0 0 0 0 0 0 0 0 0 0 0
92 92 80 76 48 24 8 48 48 48 68 56 56 56 36 12 0 8 32 12 12 20 8 8 0 0 0 0 0 0 0 0 20 56 92 80 56 36 32 32 20 8 0 20 36 44 20 8 0 0 0 0 0 0 0 0 0 0 0 0 0 0 0 0 0 0 0 0 20 44 32 24 32 36 36 20 12 12 20 24 32 32 32 24 32 24 0 0 0 0 0 0 0 0 0 0 0 0 0 0 0 0 0
92 92 92 80 76 68 64 76 68 64 68 88 80 64 32 8 0 8 12 8 8 12 8 12 8 0 0 0 0 0 0 12 44 80 92 88 76 56 56 48 36 24 0 0 8 8 0 0 0 0 0 0 0 0 0 0 0 0 0 0 0 0 0 0 0 0 0 0 8 20 36 32 48 56 36 32 20 20 32 24 24 32 24 24 20 8 0 0 0 0 0 0 0 0 0 0 0 0 0 0 0 0 0
92 92 92 88 88 92 92 92 92 88 92 88 76 64 44 12 0 0 8 0 0 8 0 0 24 32 0 0 0 0 0 0 44 88 92 92 88 76 48 44 36 24 8 0 0 0 0 0 8 12 0 0 0 0 0 0 0 0 0 0 0 0 0 0 0 0 0 0 0 8 12 12 32 44 24 20 20 24 36 24 24 24 20 8 0 0 0 0 0 0 0 0 0 0 0 0 0 0 0 0 0 0 0
92 92 92 92 92 92 92 92 92 92 92 88 88 80 64 32 12 8 8 8 8 0 0 0 20 32 24 8 0 8 24 12 20 44 88 88 88 88 80 44 32 24 24 20 12 8 0 0 0 8 12 0 0 0 0 0 0 0 0 0 0 0 0 0 0 0 0 0 0 0 8 12 20 24 44 36 32 24 24 12 8 12 12 0 0 0 0 0 0 0 0 0 0 0 0 0 0 0 0 0 0 0 0
88 92 88 92 92 92 92 92 88 76 64 64 68 80 76 36 44 48 24 64 76 76 64 48 48 56 56 48 44 36 36 20 8 8 32 76 88 88 88 64 56 48 36 64 48 36 32 20 8 0 12 0 0 0 0 0 0 0 0 0 0 0 0 0 0 0 0 0 0 0 0 8 24 48 56 48 44 36 32 20 12 8 8 0 0 8 8 8 0 0 0 0 0 0 0 0 0 0 0 0 0 0 0
76 56 76 68 80 92 92 92 92 92 88 88 92 92 88 88 76 56 48 88 92 92 92 92 88 88 80 88 88 68 44 36 20 8 8 24 64 88 88 44 48 76 80 76 68 56 36 12 8 8 0 0 0 0 0 0 0 0 0 0 0 0 0 0 0 0 0 0 0 0 0 0 8 20 36 44 32 20 32 32 24 20 0 12 12 8 8 8 0 0 0 0 0 0 0 0 0 0 0 0 0 0 0
80 68 64 64 64 68 80 88 92 92 92 92 92 92 92 92 92 92 92 48 32 32 48 68 68 64 64 88 68 48 64 68 64 48 36 32 36 44 36 20 12 24 32 48 32 8 0 0 0 0 0 0 0 0 0 0 0 0 0 0 0 0 0 0 0 0 0 0 0 0 0 0 0 0 0 20 32 36 24 20 24 24 20 20 20 24 20 8 0 0 0 0 0 0 0 0 0 0 0 0 0 0 0
32 44 36 32 36 36 32 32 36 48 80 76 80 88 80 80 88 76 20 20 20 32 92 80 88 88 76 44 48 64 44 24 44 56 44 44 32 12 0 0 0 0 0 0 0 0 0 0 0 0 0 0 0 0 0 0 0 0 0 0 0 0 0 0 0 0 0 0 0 0 0 0 0 8 24 24 24 24 8 20 20 12 8 12 20 20 20 12 8 8 0 0 0 0 0 0 0 0 0 0 0 0 0
44 20 12 8 20 24 12 12 12 36 92 64 76 92 92 92 68 24 0 8 8 12 44 76 76 76 92 92 92 88 68 64 48 32 20 24 12 0 0 0 0 0 0 0 0 0 0 0 0 0 0 0 0 0 0 0 0 0 0 0 0 0 0 0 0 0 0 0 0 0 0 0 12 24 8 20 20 20 32 12 8 8 12 8 8 8 8 8 8 8 8 8 8 0 0 0 0 0 0 0 0 0 0
8 0 0 8 12 12 8 0 8 12 24 76 80 76 76 48 24 8 8 0 0 20 68 88 76 48 24 12 44 80 92 92 80 56 32 8 0 0 0 0 0 0 0 0 0 0 0 0 0 0 0 0 0 0 0 0 0 0 0 0 0 0 0 0 0 0 0 0 0 0 0 8 20 36 44 24 24 32 24 32 24 20 32 20 12 0 0 0 0 0 0 8 8 8 8 0 0 0 0 0 0 0 0
8 8 8 0 0 8 8 8 0 0 8 36 56 64 32 24 24 24 20 8 8 0 0 0 0 8 8 8 0 0 12 76 92 80 36 12 0 0 0 12 12 8 0 0 0 0 0 0 0 0 0 0 0 0 0 0 0 0 0 0 0 0 0 0 0 0 0 0 0 0 0 8 8 8 8 12 24 36 36 44 44 44 44 32 24 20 20 8 0 0 0 0 0 8 8 8 8 0 0 0 0 0 0
56 36 20 12 8 0 0 0 0 0 0 0 8 12 20 12 24 36 36 12 8 8 0 0 0 0 0 8 8 12 24 48 76 76 24 12 44 76 64 64 48 36 32 44 20 0 0 0 12 24 24 8 0 0 0 0 0 8 0 0 0 0 0 0 0 0 0 0 0 0 0 8 8 12 32 24 32 44 36 36 36 36 44 44 32 24 24 20 12 8 0 0 0 0 8 0 0 8 0 0 0 0 0
56 44 44 20 8 8 8 0 0 0 0 0 0 8 12 8 20 24 8 8 8 8 8 0 0 0 12 76 76 48 36 36 48 64 76 68 80 92 92 92 92 88 64 56 32 8 0 0 8 8 0 8 0 0 0 0 24 48 24 8 0 0 0 0 0 0 0 0 0 0 0 8 8 8 8 24 36 32 12 32 24 24 44 44 36 36 32 24 24 20 8 8 0 0 0 0 8 8 8 8 8 0 0
44 20 32 12 12 12 12 8 8 0 0 0 0 0 0 0 0 0 0 0 8 8 8 8 0 24 88 92 92 88 64 64 64 76 92 64 48 48 80 80 80 68 48 48 44 24 0 0 0 0 0 0 0 0 12 12 48 76 48 32 12 8 8 8 0 0 0 0 0 0 0 0 8 12 0 24 24 24 44 44 36 36 36 36 44 48 48 48 36 24 24 20 12 8 8 12 8 8 8 8 8 8 0
0 0 0 0 8 8 8 8 8 8 0 0 0 0 0 0 0 0 0 0 0 0 0 8 8 24 76 88 92 92 92 92 88 80 88 48 24 12 12 8 32 48 48 24 24 20 0 0 0 0 0 0 0 12 56 80 88 80 64 76 68 56 68 44 24 12 0 0 0 0 0 8 12 12 0 8 20 24 0 24 24 20 20 36 32 32 48 48 36 32 36 44 32 12 12 20 20 12 12 8 12 12 8
8 0 0 0 0 0 8 8 8 12 20 12 8 12 12 0 0 0 0 0 0 0 0 8 20 36 76 88 88 88 88 92 88 76 76 88 68 44 24 20 8 0 0 8 12 12 0 0 0 0 0 0 0 0 0 68 88 88 76 88 92 92 92 76 48 32 12 0 0 0 0 36 36 24 12 20 12 8 0 0 12 32 24 24 24 24 44 44 32 24 48 36 32 24 24 32 32 20 20 12 12 12 8
0 8 8 0 0 0 0 0 8 12 32 36 36 36 36 20 8 0 0 0 0 0 0 36 76 92 92 88 76 64 68 88 92 92 92 92 92 92 92 48 20 8 24 44 32 8 0 0 0 8 0 0 0 0 0 56 76 68 68 76 88 92 92 80 64 36 20 0 0 0 0 32 48 48 32 24 24 24 0 12 12 12 32 20 12 20 44 32 32 32 44 32 24 32 24 32 32 24 20 20 12 12 12
12 24 24 8 0 0 0 0 0 0 0 32 44 44 44 44 20 0 0 0 0 0 0 56 80 88 88 88 80 68 76 76 80 92 92 88 80 88 92 92 64 36 80 80 44 0 0 0 20 36 32 8 0 0 0 36 56 64 64 76 88 92 80 80 76 56 24 8 0 0 0 20 36 48 44 24 20 20 12 32 32 20 8 24 24 24 36 32 24 24 44 20 12 20 32 32 24 24 20 20 12 12 12
8 12 12 12 8 0 0 0 0 0 0 0 8 24 36 36 20 0 0 0 0 0 0 64 88 88 88 88 80 76 64 76 80 88 88 80 88 92 92 92 88 76 56 48 32 8 0 0 32 56 56 20 0 0 8 24 48 68 64 76 80 80 64 56 56 64 56 48 24 0 0 8 20 32 36 20 12 12 24 32 32 24 8 20 24 20 36 36 36 44 44 24 12 12 32 20 20 24 20 20 12 12 20
8 0 8 12 8 0 0 0 0 0 0 0 0 0 8 20 12 0 0 0 0 0 0 64 88 88 88 76 76 68 48 76 88 88 80 88 88 88 92 92 92 88 56 44 36 32 24 20 24 36 48 36 20 20 32 56 56 48 64 64 64 64 80 56 56 64 88 92 64 24 8 8 20 32 24 20 8 8 20 20 20 20 8 20 20 20 20 36 44 44 36 32 24 20 20 24 24 24 32 32 24 24 20
12 12 8 0 0 0 0 0 0 0 0 0 0 0 0 0 0 0 0 0 0 0 0 56 88 88 88 76 80 80 68 76 80 80 88 80 80 88 88 92 92 80 64 68 76 76 76 56 48 48 48 64 64 56 64 76 64 44 48 64 56 64 92 80 68 68 76 88 80 68 36 32 36 44 20 12 8 12 12 20 12 8 12 12 12 12 8 24 32 32 24 12 20 24 24 24 32 32 32 32 32 32 20
12 20 24 12 8 0 0 0 0 0 0 0 0 0 0 0 0 0 0 0 0 8 24 44 76 92 92 92 92 92 88 88 76 68 88 88 80 80 92 92 64 44 68 88 88 80 80 88 76 56 48 68 80 92 88 88 68 56 48 64 64 68 88 88 88 88 80 76 88 88 64 56 56 48 24 12 12 12 12 8 8 20 44 24 12 0 0 8 12 12 12 12 8 12 20 12 32 44 36 36 36 36 24
12 20 44 32 12 0 0 0 0 0 0 0 0 0 0 0 0 0 0 0 0 8 24 44 64 80 92 92 92 88 88 92 76 64 68 76 68 64 92 80 44 12 24 36 48 68 68 76 68 56 36 36 56 80 92 92 88 76 56 64 64 68 68 64 56 56 44 48 76 88 88 88 80 76 64 44 24 20 20 8 8 24 64 48 32 12 8 8 12 20 32 24 24 32 24 32 32 36 36 44 36 32 36
8 20 36 32 24 12 0 0 0 0 0 0 0 0 0 0 0 0 0 0 0 0 0 12 36 64 88 88 88 88 88 88 76 64 76 68 64 64 92 64 44 32 12 0 20 44 56 64 76 76 56 48 68 88 92 92 88 76 80 80 76 64 56 44 32 24 12 12 44 80 88 76 80 92 80 64 44 24 20 12 8 20 64 64 48 32 20 20 12 20 44 24 36 48 48 48 36 24 32 24 24 24 56
8 12 24 24 24 12 0 8 0 0 0 0 0 0 0 0 0 0 0 0 0 0 8 8 8 20 36 64 48 36 32 68 80 80 88 80 68 64 68 48 44 36 32 8 0 12 32 56 80 88 88 80 88 92 92 92 88 88 92 92 88 80 80 48 36 32 24 8 12 36 76 64 56 64 76 64 44 24 24 12 8 20 56 56 56 44 32 20 12 12 24 24 32 44 64 64 44 32 24 12 12 24 64
20 36 44 32 20 12 8 8 8 8 8 0 0 0 0 0 0 0 0 0 0 0 0 8 8 8 0 12 12 12 32 68 88 88 88 80 76 76 76 24 20 24 24 8 0 0 8 48 76 88 92 92 92 92 92 92 92 92 92 80 88 92 92 80 68 48 44 20 12 32 88 88 56 32 24 36 24 12 12 20 12 12 36 68 76 64 32 32 32 32 36 44 48 48 56 44 48 44 12 12 12 24 68
20 32 48 36 32 24 20 8 0 0 0 0 0 0 0 0 0 0 0 0 0 0 0 0 0 0 0 0 12 44 68 80 88 88 88 88 80 64 24 8 0 8 8 0 0 0 0 44 76 92 92 92 92 92 92 92 92 92 88 68 80 88 88 92 88 88 80 48 36 44 76 92 88 68 36 20 12 8 0 8 8 8 20 56 76 80 76 56 56 56 48 56 36 24 20 24 24 20 20 8 8 20 48
36 56 64 48 44 36 32 12 0 0 0 0 0 0 0 0 8 12 0 0 0 0 8 0 0 8 0 0 24 64 80 80 80 88 92 92 80 68 56 12 0 0 0 36 24 8 0 32 68 92 92 92 92 92 92 92 92 92 92 88 88 88 68 88 92 92 92 68 48 48 68 88 92 92 88 68 64 56 24 44 32 20 56 24 36 68 92 80 68 56 36 32 20 8 12 12 8 8 12 8 12 36 56
36 44 64 56 48 44 36 24 12 8 0 0 0 0 0 0 24 44 36 56 32 8 8 24 20 12 8 0 32 64 76 80 80 88 88 92 88 76 44 12 0 0 0 36 56 56 32 68 80 80 88 92 92 92 92 92 92 92 92 92 92 88 76 68 80 92 92 92 76 64 76 88 92 92 92 92 80 68 44 32 48 76 76 76 80 80 88 88 76 56 36 24 12 8 0 12 24 24 12 8 32 56 68
44 36 36 48 56 48 44 36 24 12 8 0 0 0 0 0 20 44 80 88 64 24 0 8 24 56 68 12 32 56 44 68 80 88 88 76 56 44 68 20 0 0 0 8 8 24 80 88 88 88 88 92 92 92 92 92 92 92 92 92 92 88 88 88 92 92 92 92 92 92 92 92 92 92 92 92 80 64 48 36 32 24 24 80 92 92 92 68 64 64 44 12 8 8 24 36 32 20 8 12 32 64 92
48 48 48 36 36 44 44 36 32 20 12 8 0 0 0 0 0 8 20 48 76 68 8 0 0 24 76 20 20 48 80 80 76 56 24 48 36 20 24 56 64 44 8 0 0 0 8 68 88 92 92 92 92 92 92 92 92 92 92 92 88 88 88 88 80 56 36 56 68 80 92 92 92 92 92 92 76 56 44 44 36 36 32 36 48 64 68 76 64 44 20 8 32 56 56 64 36 12 12 48 76 88 92
36 36 44 44 36 36 32 32 32 24 20 20 12 8 0 8 0 0 0 12 56 92 92 24 8 20 56 68 48 44 80 80 88 64 0 0 36 76 68 88 88 64 0 0 0 0 0 8 8 24 68 88 92 88 88 88 92 92 92 92 88 88 88 88 76 64 68 76 76 76 88 92 92 92 92 92 92 80 48 44 56 68 64 36 44 64 64 64 64 44 20 8 36 80 92 92 68 44 24 32 68 92 92
20 32 48 48 44 36 36 36 36 36 32 24 20 24 56 36 24 12 12 8 32 68 92 44 32 36 68 36 20 32 56 76 80 68 0 0 8 32 56 76 68 64 76 20 0 0 0 0 0 8 8 48 76 88 88 76 80 92 92 88 88 88 88 92 88 88 88 88 88 92 92 92 92 92 92 92 92 92 92 76 80 88 80 80 80 80 76 68 56 48 24 56 80 92 92 92 88 76 48 36 48 76 92
0 12 44 48 44 44 36 44 44 44 36 32 24 36 80 48 56 68 56 44 48 68 92 92 76 44 20 44 24 0 8 36 64 88 88 20 0 0 0 48 68 68 80 20 0 0 0 0 0 0 0 0 8 24 88 88 88 92 92 88 88 88 88 92 88 88 88 88 88 92 92 92 92 92 92 92 92 92 92 92 92 88 88 88 88 80 80 68 56 56 56 68 80 92 92 92 92 92 76 88 92 92 92
0 8 24 32 36 36 36 36 36 44 36 32 24 24 24 68 88 88 76 80 80 88 92 92 56 20 36 64 64 44 0 0 36 80 88 56 24 0 0 0 0 0 0 0 0 0 0 36 24 0 0 0 0 0 8 68 88 92 92 92 88 88 88 88 88 92 88 88 88 92 92 92 92 92 92 80 88 92 92 92 92 92 92 92 92 88 76 76 68 64 80 76 88 92 92 92 92 92 92 92 92 92 92
0 0 0 12 32 44 32 32 32 32 32 32 24 24 20 24 44 64 64 44 44 48 56 56 48 44 20 36 36 32 20 0 32 76 88 88 88 76 48 12 0 0 0 0 0 0 0 0 0 0 0 0 0 8 0 8 44 88 92 88 88 88 88 88 88 88 88 88 92 92 92 92 92 92 92 92 92 92 92 92 92 92 88 92 88 76 68 64 68 80 92 92 92 92 92 92 92 92 92 92 92 92 92
0 0 0 0 32 56 36 36 32 24 24 24 20 20 20 20 44 68 68 68 56 48 56 64 76 88 88 56 44 44 32 8 32 68 80 88 88 92 92 68 36 8 0 0 0 0 20 0 0 0 0 0 0 8 36 12 24 56 88 56 44 56 80 88 92 92 88 88 88 92 92 92 92 92 100 92 92 92 92 92 92 92 76 88 92 92 92 76 68 68 68 80 80 80 92 92 92 92 92 76 80 92 92
0 0 0 0 20 36 32 32 32 32 24 20 12 12 12 8 36 68 76 76 68 56 64 80 92 80 36 76 64 36 44 20 32 64 76 88 88 88 92 92 92 68 0 0 8 8 0 0 0 0 0 0 0 0 0 0 8 12 36 24 20 12 24 76 92 92 92 92 88 88 88 88 92 92 92 92 92 92 92 92 92 92 80 76 88 92 92 92 80 76 80 80 80 88 92 92 92 92 92 92 88 92 92
0 0 0 0 0 8 24 24 32 36 36 20 12 20 24 12 12 32 80 64 64 76 92 92 92 80 76 56 44 44 68 36 44 56 48 68 68 68 88 92 92 80 32 32 32 24 0 0 0 0 0 0 0 0 0 0 0 0 0 12 20 24 44 64 80 92 92 92 88 88 88 88 88 92 92 92 88 80 88 92 92 92 92 76 80 88 92 92 92 92 88 92 92 88 92 92 92 92 76 88 88 88 92
0 0 0 0 0 0 0 20 36 48 48 36 36 36 44 36 24 24 36 32 32 48 80 92 88 76 68 56 76 76 12 20 36 44 20 36 44 56 80 88 92 80 44 44 24 12 12 8 0 0 0 0 0 0 0 0 0 0 8 20 36 56 64 76 76 76 80 88 92 88 88 80 80 88 92 76 64 56 56 76 88 92 92 92 88 88 92 88 88 88 80 92 92 92 92 92 92 92 92 92 92 92 88